Location: Cheching
(60.0667°N, 164.2167°W)
Time: 21:58:15
(UTC+00:00)

LilacSat-2 - Pass Details

Date: 19 January 2021
Orbit: 512 x 534 km, 97.5° (Epoch: 07 March)

Event Time Altitude Azimuth Distance (km) Brightness Sun altitude
Rises 04:54:48 0° 208° (SSW) 2,632 ? -15.9°
Reaches altitude 10° 04:57:26 10° 228° (SW) 1,755 ? -16.2°
Maximum altitude 05:00:04 18° 272° (W) 1,341 ? -16.6°
Drops below altitude 10° 05:02:43 10° 316° (NW) 1,773 ? -16.9°
Sets 05:05:24 0° 336° (NNW) 2,673 ? -17.2°
